Omitama, Japan

8:29 AM JST on February 25, 2017 (GMT +0900)
Hyakuri Aero

Weather History for RJAH - December, 2013

Change the Weather History Date:

Monday, December 16, 2013

  Actual Average Record
Temperature  
Mean Temperature 37 °F -  
Max Temperature 51 °F 44 °F 62 °F (2000)
Min Temperature 23 °F 30 °F 23 °F (2002)
Degree Days  
Heating Degree Days 28    
Moisture  
Dew Point 20 °F    
Average Humidity 50    
Maximum Humidity 80    
Minimum Humidity 26    
Precipitation  
Precipitation 0.00 in - - ()
Sea Level Pressure  
Sea Level Pressure 29.98 in    
Wind  
Wind Speed 7 mph ()    
Max Wind Speed 16 mph    
Max Gust Speed 28 mph    
Visibility 6.2 miles    
Events      
Averages and records for this station are not official NWS values.
T = Trace of Precipitation, MM = Missing Value Source: Averaged Metar Reports

Daily Weather History Graph

Daily Weather History Graph

Search for Another Location

Airport or City:

Trip Planner

Search our weather history database for the weather conditions in past years. The results will help you decide how hot, cold, wet, or windy it might be!

Date:

Astronomy

Dec. 16, 2013 Rise Set
Actual Time 6:42 AM JST 4:25 PM JST
Civil Twilight 6:13 AM JST 4:53 PM JST
Nautical Twilight 5:41 AM JST 5:25 PM JST
Astronomical Twilight 5:10 AM JST 5:57 PM JST
Moon 3:43 PM JST (12/16) 5:19 AM JST (12/16)
Length of Visible Light 10h 39m
Length of Day
9h 42m
Waxing Gibbous, 99% of the Moon is Illuminated
Dec 16
Waxing Gibbous
Dec 17
Full
Dec 25
Last Quarter
Jan 1
New
Jan 8
First Quarter

Hourly Weather History & Observations

Time (JST) Temp. Windchill Dew Point Humidity Pressure Visibility Wind Dir Wind Speed Gust Speed Precip Events Conditions
12:00 AM 26.6 °F - 17.6 °F 69% 29.92 in 6.2 mi NNE 2.3 mph - N/A   Partly Cloudy
1:00 AM 28.4 °F - 21.2 °F 74% 29.95 in 6.2 mi North 2.3 mph - N/A   Partly Cloudy
2:00 AM 23.0 °F 18.4 °F 17.6 °F 80% 29.95 in 6.2 mi WSW 3.5 mph - N/A   Partly Cloudy
3:00 AM 28.4 °F 22.2 °F 21.2 °F 74% 29.95 in 6.2 mi WSW 5.8 mph - N/A   Partly Cloudy
4:00 AM 33.8 °F 24.8 °F 23.0 °F 65% 29.92 in 6.2 mi West 12.7 mph - N/A   Partly Cloudy
5:00 AM 33.8 °F 24.8 °F 21.2 °F 60% 29.92 in 6.2 mi WNW 12.7 mph - N/A   Partly Cloudy
6:00 AM 35.6 °F 26.6 °F 21.2 °F 56% 29.95 in 6.2 mi West 13.8 mph - N/A   Partly Cloudy
7:00 AM 35.6 °F 26.6 °F 21.2 °F 56% 29.95 in 6.2 mi West 13.8 mph - N/A   Partly Cloudy
8:00 AM 39.2 °F 30.8 °F 21.2 °F 49% 29.95 in 6.2 mi WNW 15.0 mph 26.5 mph N/A   Partly Cloudy
9:00 AM 42.8 °F 35.1 °F 21.2 °F 42% 29.95 in 6.2 mi NW 16.1 mph 27.6 mph N/A   Partly Cloudy
10:00 AM 46.4 °F 40.4 °F 21.2 °F 37% 29.98 in 6.2 mi WNW 13.8 mph - N/A   Partly Cloudy
11:00 AM 50.0 °F - 19.4 °F 30% 29.95 in 6.2 mi WNW 12.7 mph - N/A   Partly Cloudy
12:00 PM 51.8 °F - 19.4 °F 28% 29.95 in 6.2 mi WNW 12.7 mph - N/A   Partly Cloudy
1:00 PM 51.8 °F - 17.6 °F 26% 29.95 in 6.2 mi West 10.4 mph - N/A   Scattered Clouds
2:00 PM 51.8 °F - 17.6 °F 26% 29.98 in 6.2 mi WNW 10.4 mph - N/A   Scattered Clouds
3:00 PM 51.8 °F - 17.6 °F 26% 29.98 in 6.2 mi WNW 8.1 mph - N/A   Mostly Cloudy
4:00 PM 48.2 °F - 17.6 °F 30% 30.01 in 6.2 mi NW 5.8 mph - N/A   Mostly Cloudy
5:00 PM 44.6 °F 40.7 °F 17.6 °F 34% 30.04 in 6.2 mi NNW 6.9 mph - N/A   Partly Cloudy
6:00 PM 42.8 °F 38.6 °F 19.4 °F 39% 30.04 in 6.2 mi WNW 6.9 mph - N/A   Partly Cloudy
7:00 PM 35.6 °F 32.8 °F 19.4 °F 52% 30.04 in 6.2 mi NW 3.5 mph - N/A   Partly Cloudy
8:00 PM 35.6 °F 30.7 °F 23.0 °F 60% 30.06 in 6.2 mi WNW 5.8 mph - N/A   Partly Cloudy
9:00 PM 35.6 °F 32.8 °F 24.8 °F 65% 30.06 in 6.2 mi West 3.5 mph - N/A   Partly Cloudy
10:00 PM 39.2 °F - 24.8 °F 56% 30.06 in 6.2 mi South 2.3 mph - N/A   Partly Cloudy
11:00 PM 35.6 °F 31.7 °F 24.8 °F 65% 30.06 in 6.2 mi NNW 4.6 mph - N/A   Partly Cloudy